PBO Station Position Time Series. Reference Frame : NAM14
Format Version,1.1.1
4-character ID,DAM3
Station name,Pacoima_DM3SCIGN
Begin Date, 2003-01-02
End Date, 2022-09-14
Release Date, 2023-03-16
Reference position, 34.3339911314 North Latitude, -118.3974677019 East Longitude, 580.02518 meters elevation,
Date, North (mm), East (mm), Vertical (mm), North Std. Deviation (mm), East Std. Deviation (mm),              Vertical Std. Deviation (mm), Quality,
2003-01-02,0.00, 0.00, 10.12, 6.70, 8.54, 32.52, repro,
2003-01-03,-10.11, 3.26, 29.02, 6.73, 7.82, 32.45, repro,
2003-01-04,-3.14, -3.15, 26.02, 6.33, 7.27, 31.36, repro,
2003-01-05,-7.62, -6.37, 44.10, 7.97, 10.06, 34.99, repro,
2003-01-06,-6.14, -0.86, 1.37, 6.46, 7.47, 31.05, repro,
2003-01-07,-1.16, 0.90, 27.39, 6.33, 8.18, 28.57, repro,
2003-01-08,-5.46, -2.18, 52.43, 6.42, 7.07, 30.32, repro,
2003-01-09,-4.39, -5.95, 46.41, 6.93, 7.46, 33.32, repro,
2003-01-10,0.63, 4.20, 59.04, 7.45, 9.82, 37.53, repro,
2003-01-11,1.57, 1.98, 32.03, 7.22, 8.84, 38.27, repro,
2003-01-12,1.50, 3.85, 46.44, 7.53, 8.80, 35.85, repro,
2003-01-13,-3.03, 6.58, 33.33, 7.25, 8.99, 38.95, repro,
2003-01-14,-0.67, -1.43, 38.89, 6.64, 8.14, 32.79, repro,
2003-01-15,-5.28, -4.01, 58.95, 7.19, 8.02, 33.06, repro,
2003-01-16,-3.79, -8.50, 31.95, 7.70, 9.00, 35.58, repro,
2003-01-17,-0.09, -5.46, 35.65, 6.29, 6.70, 28.17, repro,
2003-01-18,-0.54, -3.96, 57.73, 7.59, 9.56, 42.91, repro,
2003-01-19,-1.80, 5.44, 47.32, 6.54, 8.92, 33.19, repro,
2003-01-20,-6.06, -3.61, 63.87, 6.60, 7.62, 32.63, repro,
2003-01-21,4.71, -2.47, 51.69, 7.58, 9.11, 39.40, repro,
2003-01-22,2.23, -0.85, 81.11, 6.50, 7.83, 32.50, repro,
2003-01-23,-3.69, -1.91, 59.36, 7.11, 7.72, 35.93, repro,
2003-01-24,-2.59, -8.05, 93.03, 6.41, 7.19, 28.91, repro,
2003-01-25,-2.02, 1.68, 31.76, 6.66, 7.44, 30.59, repro,
2003-01-26,-5.21, -3.35, 37.75, 7.38, 8.00, 35.40, repro,
2003-01-27,-5.11, -3.94, 67.98, 7.94, 9.76, 42.58, repro,
2003-01-28,1.68, 8.74, 42.16, 6.91, 9.10, 33.15, repro,
2003-01-29,-6.10, 1.47, 68.75, 6.68, 7.65, 32.55, repro,
2003-01-30,-5.13, 13.06, 8.80, 6.51, 7.55, 31.42, repro,
2003-01-31,-0.39, -2.13, 65.86, 6.22, 6.99, 28.59, repro,
2003-02-01,-7.60, 12.33, 50.71, 6.98, 8.10, 28.82, repro,
2003-02-02,-1.25, 3.63, 93.26, 8.29, 10.69, 41.44, repro,
2003-02-03,-7.31, 7.44, 29.84, 6.93, 7.35, 29.24, repro,
2003-02-04,-3.01, 11.90, 50.50, 8.25, 9.54, 41.11, repro,
2003-02-05,2.67, 17.67, 36.61, 6.81, 7.32, 30.26, repro,
2003-02-06,0.38, 15.86, 28.89, 7.59, 8.59, 32.73, repro,
2003-02-07,0.03, 4.14, 72.71, 7.40, 8.00, 29.13, repro,
2003-02-08,6.38, 10.16, 21.14, 6.53, 7.45, 26.81, repro,
2003-02-09,3.57, 16.12, 57.40, 8.04, 11.05, 35.23, repro,
2003-02-10,2.34, 29.78, 42.81, 7.38, 8.67, 29.59, repro,
2003-02-11,1.55, 1.48, 24.48, 7.97, 9.68, 34.02, repro,
2003-02-12,10.04, 8.57, 53.89, 8.23, 9.47, 32.80, repro,
2003-02-13,7.91, 15.83, 29.42, 6.99, 8.69, 30.00, repro,
2003-02-14,6.30, 1.25, 60.41, 7.60, 9.37, 34.37, repro,
2003-02-15,11.98, 13.77, 24.25, 7.36, 9.44, 30.38, repro,
2003-02-16,2.45, 14.70, 64.28, 7.08, 8.80, 29.76, repro,
2003-02-17,6.05, 30.43, 58.36, 7.91, 10.14, 32.78, repro,
2003-02-18,4.34, 15.04, 16.87, 9.32, 13.60, 50.23, repro,
2003-02-19,-5.24, -1.70, 109.07, 8.48, 9.73, 41.56, repro,
2003-02-20,-3.91, 8.15, 74.32, 8.19, 10.09, 46.05, repro,
2003-02-21,0.25, 3.33, 49.10, 7.11, 8.14, 29.81, repro,
2003-02-22,2.72, 11.07, 56.07, 9.99, 10.52, 53.56, repro,
2003-02-23,-5.73, 2.74, 87.94, 9.51, 11.29, 53.24, repro,
2003-02-24,-6.46, 2.05, 110.94, 8.27, 9.80, 48.88, repro,
2003-02-25,6.60, 8.87, -13.66, 8.34, 10.14, 38.36, repro,
2003-02-26,6.31, 3.95, 99.47, 7.92, 8.84, 40.71, repro,
2003-02-27,13.50, 8.04, 72.14, 8.05, 9.66, 42.06, repro,
2003-02-28,9.81, -6.03, 72.62, 8.46, 9.33, 34.40, repro,
2003-03-01,-3.58, 7.80, 96.20, 8.46, 9.12, 50.58, repro,
2003-03-02,6.88, 18.66, -2.21, 9.27, 12.07, 48.47, repro,
2003-03-03,4.83, -2.68, 72.31, 7.55, 8.04, 31.58, repro,
2003-03-04,-2.99, 20.06, 77.12, 8.97, 11.13, 46.99, repro,
2003-03-05,12.80, -13.85, 84.37, 10.97, 14.24, 57.26, repro,
2003-03-06,-2.24, -0.02, 80.91, 10.51, 13.98, 63.01, repro,
2003-03-07,6.86, -2.18, 66.12, 11.34, 13.06, 59.05, repro,
2003-03-08,-2.85, -4.00, 88.74, 9.43, 10.82, 53.57, repro,
2003-03-09,-11.29, 17.98, 110.96, 8.90, 10.73, 48.34, repro,
2003-03-10,1.40, 2.03, 88.84, 8.46, 8.40, 36.55, repro,
2003-03-11,11.83, 7.52, 76.51, 10.07, 10.97, 40.88, repro,
2003-03-12,-1.73, 19.01, 25.05, 8.72, 8.43, 36.49, repro,
2003-03-13,-7.75, 12.42, 73.82, 8.80, 10.47, 37.24, repro,
2003-03-14,-7.27, 89.80, 91.53, 9.86, 12.23, 58.11, repro,
2003-03-16,-9.33, -0.36, 133.26, 9.37, 9.07, 46.42, repro,
2003-03-17,9.29, -0.73, 52.02, 8.64, 8.97, 36.98, repro,
2003-03-18,-0.24, -3.55, 51.00, 8.03, 8.45, 35.42, repro,
2003-03-19,2.63, 5.42, 59.96, 10.17, 17.90, 45.39, repro,
2003-03-20,5.55, 5.82, 50.07, 10.56, 12.57, 56.52, repro,
2003-03-21,-0.44, -6.36, 75.24, 9.50, 9.81, 53.74, repro,
2003-03-22,-25.29, 16.83, 151.03, 9.89, 12.36, 57.11, repro,
2003-03-23,1.27, -5.07, 59.91, 9.03, 9.83, 51.28, repro,
2003-03-24,-11.64, 20.63, 105.89, 9.97, 10.10, 57.07, repro,
2003-03-25,55.63, -33.87, -108.91, 10.60, 11.22, 65.16, repro,
2003-03-26,-2.67, -0.78, 72.56, 9.85, 9.30, 54.18, repro,
2003-03-27,-15.59, 23.54, -9.91, 10.57, 9.25, 58.99, repro,
2003-03-28,22.64, -60.75, -28.02, 10.96, 20.64, 74.00, repro,
2003-03-29,-7.18, -0.07, 76.74, 9.94, 8.91, 57.10, repro,
2003-03-30,-21.18, 31.32, 163.97, 9.65, 9.45, 60.84, repro,
2003-03-31,-2.21, -12.66, 72.06, 9.85, 9.25, 54.37, repro,
2003-04-01,4.13, 74.62, -30.17, 11.75, 12.88, 69.84, repro,
2003-04-02,-0.67, -13.23, 156.55, 9.48, 9.85, 54.48, repro,
2003-04-03,5.21, 6.45, 62.97, 9.91, 8.91, 55.70, repro,
2003-04-04,8.27, 6.54, 58.04, 11.16, 12.36, 67.60, repro,
2003-04-05,6.94, -3.39, 68.91, 10.02, 8.97, 53.68, repro,
2003-04-06,10.04, 6.65, 27.38, 10.12, 9.08, 56.80, repro,
2003-04-07,1.22, -7.00, 118.73, 9.89, 9.65, 51.82, repro,
2003-04-08,-13.97, 2.35, 77.39, 9.94, 8.77, 54.25, repro,
2003-04-09,30.48, 4.92, -5.49, 11.65, 11.75, 67.02, repro,
2003-04-10,-2.76, -52.05, 117.27, 11.40, 9.75, 62.25, repro,
2003-04-11,8.88, 9.69, 36.96, 10.62, 9.71, 57.37, repro,
2003-04-15,15.44, 16.93, 13.75, 8.90, 9.06, 43.93, repro,
2003-04-16,11.90, 4.13, 40.89, 9.87, 9.99, 45.79, repro,
2003-04-17,5.06, 5.40, 36.21, 8.96, 8.92, 40.46, repro,
2003-04-18,0.50, 13.79, 12.11, 8.88, 7.99, 44.82, repro,
2003-04-19,4.77, -9.59, 1.50, 8.53, 7.78, 38.35, repro,
2003-04-20,1.86, -1.46, 55.74, 9.09, 9.80, 47.00, repro,
2003-04-21,4.46, 14.53, -22.41, 9.34, 8.42, 41.17, repro,
2003-04-22,7.54, -1.71, 58.91, 8.66, 8.79, 40.23, repro,
2003-04-23,6.68, 4.43, 5.67, 9.18, 8.43, 42.44, repro,
2003-04-24,10.38, -3.21, 62.20, 8.40, 8.71, 41.21, repro,
2003-04-25,0.39, 11.86, -2.61, 8.37, 8.71, 44.88, repro,
2003-04-26,12.19, 10.39, 29.88, 8.70, 8.71, 43.77, repro,
2003-04-27,-3.38, 5.27, 53.96, 7.88, 7.75, 38.80, repro,
2003-04-28,6.85, -0.96, 62.82, 9.00, 9.46, 49.13, repro,
2003-04-29,9.10, 7.18, 8.11, 7.98, 7.79, 40.23, repro,
2003-04-30,-0.25, 9.73, 3.63, 8.26, 8.50, 45.71, repro,
2003-05-01,-0.88, 8.55, -16.16, 8.20, 8.07, 39.73, repro,
2003-05-02,-1.76, -6.58, -10.15, 10.46, 11.12, 47.59, repro,
2003-05-03,5.79, 28.30, -54.15, 9.02, 8.57, 43.30, repro,
2003-05-04,8.94, 0.80, 46.33, 9.61, 9.41, 42.80, repro,
2003-05-05,9.20, 5.83, -34.85, 8.26, 8.59, 44.69, repro,
2003-05-06,3.13, 5.31, -38.47, 10.12, 8.52, 44.29, repro,
2003-05-07,-0.53, 6.17, 14.46, 8.37, 8.56, 46.34, repro,
2003-05-08,6.11, 14.50, -12.81, 9.28, 9.91, 60.38, repro,
2003-05-09,4.44, -0.37, 20.82, 9.07, 10.10, 62.96, repro,
2003-05-10,6.64, 14.86, -32.90, 7.85, 7.94, 42.64, repro,
2003-05-11,-3.20, 9.23, -15.02, 9.70, 7.56, 38.71, repro,
2003-05-12,6.41, 4.49, 24.22, 12.89, 16.27, 104.39, repro,
2003-05-13,0.49, 11.21, -12.87, 12.97, 13.03, 87.65, repro,
2003-05-14,-3.83, 0.83, 47.44, 8.44, 7.56, 40.34, repro,
2003-05-15,-0.01, 10.46, -19.19, 8.47, 7.71, 39.92, repro,
2003-05-16,1.70, 2.69, 1.54, 8.10, 6.81, 33.76, repro,
2003-05-17,1.66, -3.57, 8.93, 7.52, 7.50, 34.71, repro,
2003-05-18,5.93, 10.09, -24.15, 9.03, 7.29, 40.08, repro,
2003-05-19,6.25, -3.47, 9.54, 7.29, 6.51, 31.18, repro,
2003-05-20,1.23, -4.78, 4.28, 7.70, 7.02, 32.95, repro,
2003-05-21,-0.22, -1.47, 34.35, 7.80, 6.77, 34.14, repro,
2003-05-22,4.77, 0.67, -8.55, 9.17, 7.50, 41.80, repro,
2003-05-23,6.55, 5.87, -33.56, 9.05, 7.16, 40.25, repro,
2003-05-24,1.60, 8.25, -18.14, 8.26, 6.69, 32.82, repro,
2003-05-25,8.42, 7.63, -13.70, 8.53, 6.77, 37.63, repro,
2003-05-26,3.20, 2.92, 33.30, 7.40, 5.99, 30.06, repro,
2003-05-27,-2.23, 4.09, -12.23, 8.98, 7.81, 42.43, repro,
2003-05-28,5.73, 0.30, -0.59, 8.64, 7.53, 38.77, repro,
2003-05-29,-3.82, 15.08, -13.03, 8.50, 7.93, 40.96, repro,
2003-05-30,1.45, -1.43, 7.08, 8.34, 7.08, 36.48, repro,
2003-05-31,0.16, 4.15, 5.58, 9.86, 8.75, 52.41, repro,
2003-06-01,3.88, 6.17, -35.88, 9.89, 9.90, 56.28, repro,
2003-06-02,0.55, -1.44, 18.09, 7.32, 6.15, 29.76, repro,
2003-06-03,-2.43, 5.32, 11.71, 7.51, 6.28, 29.72, repro,
2003-06-04,4.72, 8.31, -35.43, 8.62, 7.58, 43.42, repro,
2003-06-05,-2.67, 4.57, 13.55, 8.18, 6.63, 33.84, repro,
2003-06-06,0.90, 5.29, 12.97, 7.28, 6.57, 31.94, repro,
2003-06-07,1.72, 1.18, 15.68, 7.03, 6.48, 30.28, repro,
2003-06-08,-4.60, -3.43, 48.43, 7.42, 6.80, 31.90, repro,
2003-06-09,-3.02, 0.04, 0.94, 8.16, 8.20, 36.42, repro,
2003-06-10,1.98, 7.65, 6.74, 6.59, 6.24, 29.39, repro,
2003-06-11,8.10, 9.19, -4.92, 7.00, 6.58, 31.03, repro,
2003-06-12,-4.02, -0.85, 37.00, 6.83, 6.34, 29.74, repro,
2003-06-13,-4.80, 1.20, 14.59, 6.49, 6.36, 28.07, repro,
2003-06-14,-3.91, -5.91, -5.26, 8.23, 8.25, 47.11, repro,
2003-06-15,-5.48, 5.26, -14.13, 8.72, 8.86, 51.72, repro,
2003-06-16,-0.91, -2.86, -25.36, 7.63, 7.82, 35.65, repro,
2003-06-17,6.17, -3.15, 1.21, 9.15, 9.11, 51.40, repro,
2003-06-18,1.13, 7.40, -20.17, 7.24, 7.85, 30.68, repro,
2003-06-19,-6.45, -19.42, 130.75, 11.50, 15.04, 84.83, repro,
2003-06-20,7.97, 68.10, -115.31, 8.37, 7.31, 31.39, repro,
2003-06-21,0.20, 2.00, 18.66, 7.18, 7.17, 33.19, repro,
2003-06-22,2.71, 7.44, 24.34, 6.55, 6.23, 27.82, repro,
2003-06-23,5.05, 10.02, -19.50, 7.20, 7.12, 30.26, repro,
2003-06-24,1.87, 0.61, -0.02, 8.92, 8.94, 36.08, repro,
2003-06-25,-11.44, 3.02, 27.16, 9.44, 9.31, 57.07, repro,
2003-06-26,-8.16, -3.82, 14.47, 7.75, 8.21, 34.94, repro,
2003-06-27,-8.67, 3.26, -0.94, 7.27, 6.71, 30.38, repro,
2003-06-28,-8.04, -3.56, 20.01, 8.54, 9.30, 53.14, repro,
2003-06-29,1.52, 1.20, -8.76, 7.12, 6.79, 31.21, repro,
2003-06-30,-6.49, 4.91, -45.31, 8.08, 7.17, 32.18, repro,
2003-07-01,-8.10, -17.91, 60.49, 7.38, 7.90, 34.76, repro,
2003-07-02,-3.49, -4.97, 25.01, 6.56, 6.51, 28.01, repro,
2003-07-03,-10.55, -5.51, -10.76, 6.87, 6.98, 31.94, repro,
2003-07-04,-5.03, -13.53, 11.28, 6.80, 6.53, 30.88, repro,
2003-07-05,-7.11, -15.06, -1.02, 8.02, 8.71, 45.90, repro,
2003-07-06,-11.43, -16.49, 45.09, 8.38, 9.27, 50.23, repro,
2003-07-07,-4.37, -18.70, 63.80, 8.32, 7.99, 45.46, repro,
2003-07-08,-4.99, -11.92, 23.65, 6.86, 6.95, 32.12, repro,
2003-07-09,-4.92, -0.71, -14.78, 7.21, 7.28, 32.77, repro,
2003-07-10,-2.30, -12.65, 22.77, 7.85, 8.32, 40.37, repro,
2003-07-11,0.12, -6.06, 2.09, 6.88, 7.06, 31.49, repro,
2003-07-12,1.65, -6.51, 14.39, 7.42, 7.13, 36.37, repro,
2003-07-13,1.64, -18.69, -6.86, 6.74, 7.09, 32.07, repro,
2003-07-14,1.97, -3.82, 1.87, 6.46, 6.52, 28.99, repro,
2003-07-15,9.05, -25.26, -0.04, 6.75, 6.76, 31.16, repro,
2003-07-16,-0.42, -8.07, 4.07, 6.76, 6.59, 30.57, repro,
2003-07-17,1.33, -1.30, -26.14, 7.43, 6.91, 36.76, repro,
2003-07-18,-5.55, -3.66, 19.76, 6.99, 7.43, 30.61, repro,
2003-07-19,2.01, -11.23, 10.66, 7.21, 7.47, 29.56, repro,
2003-07-20,0.31, -7.57, 30.18, 7.11, 7.37, 31.03, repro,
2003-07-21,0.23, 0.78, -2.27, 6.01, 5.64, 24.26, repro,
2003-07-22,-5.20, 0.60, 0.00, 2.68, 2.68, 11.37, repro,
2003-07-23,-3.22, -0.15, 15.42, 2.50, 2.43, 11.35, repro,
2003-07-24,-1.50, 0.51, 23.55, 2.47, 2.38, 10.89, repro,
2003-07-25,-3.20, 1.59, 20.81, 2.45, 2.41, 10.98, repro,
2003-07-26,-1.78, 2.52, 1.99, 2.53, 2.47, 11.57, repro,
2003-07-27,-2.73, -0.83, 12.53, 2.51, 2.45, 11.37, repro,
2003-07-28,-6.01, 0.01, 9.95, 2.80, 2.76, 12.83, repro,
2003-07-29,-3.02, -0.91, 26.56, 2.48, 2.47, 10.69, repro,
2003-07-30,-6.22, 2.80, 12.15, 2.48, 2.46, 10.83, repro,
2003-07-31,-1.99, 0.10, 7.73, 2.51, 2.51, 11.43, repro,
2003-08-01,-3.78, -1.94, 30.46, 2.55, 2.68, 12.27, repro,
2003-08-02,-3.33, 2.67, 13.03, 2.45, 2.47, 11.38, repro,
2003-08-03,-4.02, 3.79, 22.36, 2.44, 2.43, 11.07, repro,
2003-08-04,-4.31, 2.60, 12.19, 2.45, 2.47, 11.48, repro,
2003-08-05,-0.26, 4.00, 23.02, 2.49, 2.56, 11.54, repro,
2003-08-06,-3.08, 4.03, 17.14, 2.48, 2.45, 11.07, repro,
2003-08-07,-2.46, 0.97, 18.03, 2.46, 2.47, 11.07, repro,
2003-08-08,-1.89, 4.35, 27.35, 2.52, 2.53, 11.11, repro,
2003-08-09,-3.56, 2.76, 4.23, 2.40, 2.41, 10.91, repro,
2003-08-10,-5.58, -1.49, 36.05, 2.41, 2.48, 11.39, repro,
2003-08-11,-4.76, 2.43, 24.25, 2.36, 2.41, 10.64, repro,
2003-08-12,-3.99, 1.05, 24.05, 2.46, 2.52, 11.56, repro,
2003-08-13,-3.35, 0.60, 13.01, 2.40, 2.40, 10.73, repro,
2003-08-14,-3.02, -1.63, 18.39, 2.41, 2.42, 10.84, repro,
2003-08-15,-4.77, 0.28, 24.23, 2.42, 2.44, 11.09, repro,
2003-08-16,-0.42, -1.87, 30.27, 2.59, 2.72, 13.01, repro,
2003-08-17,-2.37, -1.66, 33.48, 2.44, 2.57, 11.82, repro,
2003-08-18,-3.34, -1.04, 18.44, 2.40, 2.41, 11.10, repro,
2003-08-19,-1.18, 4.00, 16.47, 2.43, 2.43, 11.40, repro,
2003-08-20,-0.42, 0.86, 15.65, 2.42, 2.49, 11.26, repro,
2003-08-21,-4.08, 0.65, 25.39, 2.46, 2.48, 11.62, repro,
2003-08-22,-0.31, 3.19, 24.98, 2.46, 2.51, 11.99, repro,
2003-08-23,0.04, 2.74, 20.46, 2.73, 2.86, 13.21, repro,
2003-08-24,-2.67, -1.10, 19.59, 2.38, 2.38, 10.82, repro,
2003-08-25,-3.61, -2.16, 21.99, 2.47, 2.52, 11.95, repro,
2003-08-26,-1.52, 0.53, 11.10, 2.39, 2.38, 11.11, repro,
2003-08-27,-4.18, 2.15, 7.83, 2.41, 2.39, 11.04, repro,
2003-08-28,-6.08, -1.58, 22.96, 2.57, 2.73, 13.13, repro,
2003-08-29,1.74, -1.45, 20.81, 2.41, 2.47, 11.27, repro,
2003-08-30,-1.43, -4.68, 44.82, 2.48, 2.58, 12.21, repro,
2003-08-31,-1.33, -2.99, 25.99, 2.53, 2.66, 12.68, repro,
2003-09-01,-3.09, -2.19, 27.49, 2.43, 2.43, 11.26, repro,
2003-09-02,-2.69, -1.04, 18.62, 2.45, 2.46, 11.63, repro,
2003-09-03,-0.07, -1.10, 16.89, 2.45, 2.58, 11.64, repro,
2003-09-04,-2.86, -0.62, 30.11, 2.46, 2.44, 11.19, repro,
2003-09-05,-0.48, -3.56, 31.72, 2.41, 2.40, 11.24, repro,
2003-09-06,-0.38, -4.20, 24.50, 2.46, 2.53, 11.80, repro,
2003-09-07,-1.37, -4.76, 23.92, 2.44, 2.52, 11.33, repro,
2003-09-08,-1.47, -3.99, 36.51, 2.59, 2.79, 12.92, repro,
2003-09-09,0.28, -0.12, 34.99, 2.50, 2.52, 11.89, repro,
2003-09-10,2.02, -1.66, 31.23, 2.44, 2.56, 11.87, repro,
2003-09-11,-0.36, -2.02, 32.95, 2.47, 2.51, 11.89, repro,
2003-09-12,0.27, -4.37, 39.64, 2.47, 2.52, 11.31, repro,
2003-09-13,-0.37, -3.07, 35.57, 2.49, 2.53, 11.19, repro,
2003-09-14,-1.78, 0.21, 25.90, 2.51, 2.53, 11.64, repro,
2003-09-15,-2.54, 0.05, 23.22, 2.56, 2.64, 12.03, repro,
2003-09-16,0.07, -0.36, 25.68, 2.48, 2.53, 12.00, repro,
2003-09-17,0.23, 1.30, 20.49, 2.59, 2.62, 12.13, repro,
2003-09-18,-0.45, -5.37, 50.30, 2.49, 2.59, 12.24, repro,
2003-09-19,-2.26, -2.21, 47.53, 2.62, 2.75, 13.07, repro,
2003-09-20,-1.06, -2.30, 29.60, 2.48, 2.53, 11.75, repro,
2003-09-21,-4.86, -2.56, 20.35, 2.60, 2.69, 12.56, repro,
2003-09-22,-6.25, -5.32, 35.06, 2.54, 2.59, 12.20, repro,
2003-09-23,-2.51, -1.67, 25.29, 2.64, 2.63, 12.38, repro,
2003-09-24,-3.40, 2.69, 24.77, 2.58, 2.61, 12.12, repro,
2003-09-25,0.38, 1.24, 6.27, 2.59, 2.55, 12.01, repro,
2003-09-26,-4.69, -0.43, 29.13, 2.70, 2.77, 12.98, repro,
2003-09-27,-0.42, 4.60, -1.77, 2.71, 2.86, 13.57, repro,
2003-09-28,-0.20, 0.95, 12.92, 2.66, 2.69, 11.94, repro,
2003-09-29,-0.77, 1.29, 33.62, 2.61, 2.59, 12.02, repro,
2003-09-30,0.41, 2.07, 5.92, 2.67, 2.64, 12.29, repro,
2003-10-01,0.87, 0.27, 17.37, 2.70, 2.73, 12.60, repro,
2003-10-02,2.96, 3.92, 18.27, 2.58, 2.54, 11.72, repro,
2003-10-03,0.82, 2.48, 24.06, 2.53, 2.52, 11.54, repro,
2003-10-04,0.20, 5.63, 17.73, 2.72, 2.76, 12.64, repro,
2003-10-05,-1.18, 4.07, 19.27, 2.55, 2.59, 11.30, repro,
2003-10-06,-0.37, -0.09, 11.20, 2.63, 2.59, 11.99, repro,
2003-10-07,-2.12, 2.92, 17.47, 2.82, 2.87, 12.45, repro,
2003-10-08,-2.48, 3.89, 15.35, 2.99, 3.01, 12.84, repro,
2003-10-09,-5.44, 1.34, 19.91, 2.60, 2.59, 11.79, repro,
2003-10-10,-1.01, 5.69, 22.23, 2.58, 2.48, 11.60, repro,
2003-10-11,-0.54, 4.27, 29.95, 2.64, 2.59, 12.25, repro,
2003-10-12,-4.17, 1.60, 31.73, 2.66, 2.75, 12.39, repro,
2003-10-13,0.20, -5.23, 40.43, 2.72, 2.90, 13.59, repro,
2003-10-14,-2.57, 0.71, 33.42, 2.49, 2.57, 11.43, repro,
2003-10-15,-2.12, -0.66, 38.11, 2.57, 2.62, 12.10, repro,
2003-10-16,1.46, 4.41, 8.60, 2.44, 2.45, 11.02, repro,
2003-10-17,-0.61, 1.46, 14.77, 2.51, 2.64, 11.49, repro,
2003-10-18,1.35, -5.14, 30.55, 2.69, 2.95, 13.57, repro,
2003-10-19,-2.99, 4.10, 23.13, 2.57, 2.75, 11.56, repro,
2003-10-20,-2.03, -2.38, 33.15, 2.61, 2.65, 12.05, repro,
2003-10-21,-4.55, 1.88, 14.68, 2.52, 2.61, 12.04, repro,
2003-10-22,-4.51, -0.34, 28.09, 2.69, 2.71, 12.75, repro,
2003-10-23,-1.25, -3.93, 40.58, 2.62, 2.67, 12.60, repro,
2003-10-24,-4.07, -1.11, 32.32, 2.53, 2.56, 11.67, repro,
2003-10-25,-7.50, 1.84, 30.91, 2.53, 2.72, 12.05, repro,
2003-10-26,-7.71, 0.81, -4.75, 2.58, 2.73, 12.69, repro,
2003-10-27,-5.11, -1.58, 37.77, 2.47, 2.54, 12.21, repro,
2003-10-28,-3.20, -0.15, 24.29, 2.54, 2.61, 12.21, repro,
2003-10-29,0.53, 1.37, 35.77, 2.72, 3.00, 14.42, repro,
2003-10-30,-0.67, 8.36, 23.78, 2.87, 3.05, 13.56, repro,
2003-10-31,12.88, 14.05, 21.40, 2.53, 2.57, 11.17, repro,
2003-11-01,12.01, 13.12, 5.86, 2.47, 2.53, 11.28, repro,
2003-11-02,20.40, 14.86, 19.47, 2.47, 2.55, 10.83, repro,
2003-11-03,7.88, 15.45, 28.11, 2.45, 2.47, 10.94, repro,
2003-11-04,11.91, 18.27, 13.26, 2.57, 2.85, 12.07, repro,
2003-11-05,8.66, 11.86, 14.92, 2.52, 2.67, 11.89, repro,
2003-11-06,0.38, 5.12, 17.33, 2.51, 2.63, 11.43, repro,
2003-11-07,1.69, 8.60, 15.13, 2.48, 2.55, 11.79, repro,
2003-11-08,-0.20, 4.11, 35.23, 2.64, 2.74, 13.41, repro,
2003-11-09,0.30, 7.94, 19.25, 2.54, 2.63, 12.18, repro,
2003-11-10,0.54, 9.50, 17.29, 2.59, 2.73, 12.23, repro,
2003-11-11,1.28, 4.71, 28.25, 2.53, 2.54, 11.64, repro,
2003-11-12,1.73, 6.58, 10.11, 2.54, 2.69, 11.53, repro,
2003-11-13,9.22, 12.17, 1.82, 2.55, 2.54, 11.47, repro,
2003-11-14,4.07, 7.41, 17.72, 2.93, 3.11, 14.12, repro,
2003-11-15,7.52, 14.91, 11.74, 2.58, 2.69, 11.51, repro,
2003-11-16,12.70, 8.77, 7.96, 2.49, 2.61, 11.11, repro,
2003-11-17,4.82, 15.42, 11.46, 2.59, 2.82, 11.69, repro,
2003-11-18,4.61, 11.31, -0.50, 2.56, 2.68, 11.36, repro,
2003-11-19,-1.52, 0.85, 28.21, 2.66, 2.83, 13.18, repro,
2003-11-20,-1.44, 2.44, 31.41, 2.58, 2.71, 13.13, repro,
2003-11-21,12.04, 11.87, 30.98, 2.76, 3.07, 12.00, repro,
2003-11-22,9.37, 13.70, 10.06, 2.52, 2.59, 11.43, repro,
2003-11-23,5.20, 10.54, 10.50, 2.53, 2.59, 11.97, repro,
2003-11-24,1.92, 4.62, 35.99, 2.58, 2.69, 12.93, repro,
2003-11-25,8.51, 5.22, 25.01, 2.61, 2.74, 12.01, repro,
2003-11-26,17.83, 13.49, 20.26, 2.42, 2.49, 10.68, repro,
2003-11-27,0.87, 3.73, 23.54, 2.73, 3.04, 13.58, repro,
2003-11-28,-1.85, 8.48, 22.08, 2.72, 2.83, 12.88, repro,
2003-11-29,-2.98, 1.36, 50.32, 2.79, 3.10, 14.83, repro,
2003-11-30,-0.05, 5.65, 30.47, 2.63, 2.89, 13.97, repro,
2003-12-01,1.52, 7.21, 33.78, 2.88, 3.16, 14.25, repro,
2003-12-02,2.65, 6.53, 1.80, 2.65, 2.77, 12.85, repro,
2003-12-03,-4.27, 5.30, 20.76, 2.53, 2.57, 11.64, repro,
2003-12-04,-1.19, 4.69, 22.66, 2.60, 2.79, 12.52, repro,
2003-12-05,-1.21, 2.88, 24.92, 2.60, 2.80, 12.61, repro,
2003-12-06,0.99, 8.73, 15.47, 2.50, 2.61, 11.78, repro,
2003-12-07,1.09, 8.55, 18.85, 2.60, 2.69, 11.80, repro,
2003-12-08,4.52, 7.25, 11.80, 2.56, 2.58, 11.77, repro,
2003-12-09,6.05, 6.87, 15.79, 2.71, 2.83, 12.18, repro,
2003-12-10,12.21, 11.14, 28.54, 2.41, 2.39, 10.64, repro,
2003-12-11,12.67, 12.25, 16.50, 2.60, 2.65, 11.42, repro,
2003-12-12,12.36, 6.41, 13.28, 2.38, 2.42, 10.96, repro,
2003-12-13,16.09, 11.09, 23.92, 2.39, 2.45, 10.83, repro,
2003-12-14,16.86, 12.72, 17.55, 2.36, 2.34, 10.35, repro,
2003-12-15,17.88, 7.09, 15.11, 2.42, 2.42, 10.87, repro,
2003-12-16,4.72, 7.43, 4.21, 2.44, 2.45, 11.39, repro,
2003-12-17,2.75, 8.69, 17.45, 2.51, 2.60, 11.72, repro,
2003-12-18,-1.73, 2.91, 34.70, 2.43, 2.56, 11.96, repro,
2003-12-19,-1.43, 2.84, 26.17, 2.48, 2.58, 12.32, repro,
2003-12-20,0.13, 5.38, 34.43, 2.66, 2.67, 12.74, repro,
2003-12-21,3.89, 7.08, 24.50, 2.68, 2.69, 12.33, repro,
2003-12-22,3.18, 6.30, 27.34, 2.55, 2.68, 13.07, repro,
2003-12-23,2.27, 7.85, 23.92, 2.52, 2.65, 12.13, repro,
2003-12-24,7.38, 10.39, 19.48, 2.58, 2.69, 12.32, repro,
2003-12-25,7.24, 11.85, 15.78, 2.46, 2.49, 11.73, repro,
2003-12-26,20.16, 8.40, 22.24, 2.49, 2.48, 11.10, repro,
2003-12-27,17.11, 9.76, 9.79, 2.46, 2.51, 10.85, repro,
2003-12-28,19.65, 9.77, 25.51, 2.45, 2.48, 11.08, repro,
2003-12-29,18.50, 12.30, 18.51, 2.41, 2.46, 10.98, repro,
2003-12-30,5.11, 11.48, 23.74, 2.48, 2.50, 11.76, repro,
2003-12-31,6.20, 10.64, 17.87, 2.50, 2.43, 11.46, repro,
2004-01-01,15.72, 9.21, 23.04, 2.45, 2.45, 11.07, repro,
2004-01-02,10.28, 8.48, 7.67, 2.65, 2.71, 13.20, repro,
2004-01-03,18.13, 9.65, 19.22, 2.56, 2.56, 11.14, repro,
2004-01-04,14.19, 12.06, 19.62, 2.52, 2.62, 11.84, repro,
2004-01-05,6.78, 7.73, 16.44, 2.51, 2.59, 11.98, repro,
2004-01-06,4.47, 5.64, 24.76, 2.54, 2.60, 12.33, repro,
2004-01-07,2.97, 7.08, 12.46, 2.50, 2.53, 11.27, repro,
2004-01-08,7.10, 8.02, 16.61, 2.59, 2.70, 11.86, repro,
2004-01-09,-0.45, 3.84, 21.75, 2.42, 2.45, 10.76, repro,
2004-01-10,-0.80, 1.81, 28.24, 2.50, 2.61, 11.86, repro,
2004-01-11,-2.23, 3.09, 13.41, 2.58, 2.67, 12.38, repro,
2004-01-12,0.52, 5.21, 7.13, 2.42, 2.49, 11.27, repro,
2004-01-13,0.19, 10.08, 13.96, 2.54, 2.57, 11.43, repro,
2004-01-14,1.69, 1.99, 17.68, 2.73, 2.87, 13.59, repro,
2004-01-15,-2.24, 0.71, 24.06, 2.54, 2.72, 12.02, repro,
2004-01-16,1.29, 6.13, 15.44, 2.72, 2.73, 13.27, repro,
2004-01-17,2.59, 8.52, 26.38, 2.66, 2.88, 13.82, repro,
2004-01-18,6.27, 11.55, 21.34, 2.56, 2.63, 11.83, repro,
2004-01-19,1.19, 9.62, 35.65, 2.60, 2.71, 13.08, repro,
2004-01-20,13.04, 13.61, 5.26, 2.59, 2.61, 11.93, repro,
2004-01-21,1.44, 11.99, 41.28, 2.75, 2.93, 13.53, repro,
2004-01-22,6.28, 13.72, 18.12, 2.62, 2.76, 12.21, repro,
2004-01-23,-0.15, 9.32, 8.70, 2.53, 2.71, 11.70, repro,
2004-01-24,3.98, 16.46, 8.83, 2.44, 2.59, 11.62, repro,
2004-01-25,6.90, 8.77, 16.61, 2.51, 2.77, 11.49, repro,
2004-01-26,5.60, 13.72, 34.21, 2.68, 2.77, 11.96, repro,
2004-01-27,7.20, 7.43, 17.71, 2.49, 2.65, 11.08, repro,
2004-01-28,11.05, 2.55, 27.58, 2.69, 2.93, 13.16, repro,
2004-01-29,1.33, 11.67, 29.21, 2.63, 2.78, 12.73, repro,
2004-01-30,0.48, 11.34, 35.37, 2.63, 2.77, 12.45, repro,
2004-01-31,7.57, 4.22, 39.16, 2.50, 2.56, 11.75, repro,
2004-02-01,4.38, 12.32, 29.85, 2.43, 2.49, 10.85, repro,
2004-02-02,8.27, 10.62, 13.87, 2.43, 2.48, 11.79, repro,
2004-02-03,9.02, 11.17, 30.02, 2.48, 2.59, 11.82, repro,
2004-02-04,8.62, 9.37, 32.14, 2.52, 2.65, 11.76, repro,
2004-02-05,4.07, 9.15, 21.48, 2.49, 2.64, 12.19, repro,
2004-02-06,1.64, 9.16, 31.06, 2.49, 2.54, 11.98, repro,
2004-02-07,4.01, 8.50, 30.05, 2.47, 2.59, 11.92, repro,
2004-02-08,3.42, 6.26, 19.69, 2.50, 2.54, 12.13, repro,
2004-02-09,1.52, 6.40, 25.30, 2.54, 2.61, 12.78, repro,
2004-02-10,0.65, 7.96, 24.03, 2.53, 2.64, 12.05, repro,
2004-02-11,-0.92, 8.56, 27.86, 2.56, 2.69, 12.82, repro,
2004-02-12,2.19, 6.57, 32.19, 2.56, 2.64, 12.19, repro,
2004-02-13,2.94, 7.70, 41.30, 2.55, 2.63, 12.64, repro,
2004-02-14,2.42, 7.14, 40.47, 2.50, 2.56, 11.68, repro,
2004-02-15,4.88, 7.08, 27.79, 2.57, 2.61, 12.32, repro,
2004-02-16,1.28, 7.73, 37.79, 2.65, 2.68, 12.83, repro,
2004-02-17,1.59, 8.37, 16.85, 2.52, 2.62, 12.44, repro,
2004-02-18,5.33, 8.05, 17.96, 2.67, 2.78, 13.35, repro,
2004-02-19,6.08, 5.67, 34.11, 2.61, 2.70, 13.06, repro,
2004-02-20,6.52, 7.06, 35.75, 2.48, 2.56, 11.86, repro,